Home   Weather   Trier   Past weeks

Flag for Germany Past Weather in Trier, Rhineland-Palatinate, Germany — Yesterday and Last 2 Weeks

Now
72 °F

Scattered clouds.


Feels Like: 77 °F
Forecast: 45 / 71 °F
Wind: 9 mph from West

Location: Spangdahlem

Current Time: May 23, 2017 at 12:58:12 pm

Latest Report: May 23, 2017 at 12:21 pm


Visibility: N/A

Pressure: 30.03 "Hg

Humidity: 53%

Dew Point: 54 °F

Location of TrierLocation

Past Weather in Trier — Graph

°F

Trier Temperature Yesterday

Maximum temperature yesterday: 72 °F (at 4:58 pm)
Minimum temperature yesterday: 49 °F (at 2:58 am)
Average temperature yesterday: 62 °F

High & Low Weather Summary for the Past Weeks

 TemperatureHumidityPressure
High82 °F (May 17, 5:58 pm)100% (May 13, 6:38 am)30.40 "Hg (May 13, 6:38 am)
Low33 °F (May 10, 6:58 am)28% (May 10, 5:58 pm)29.44 "Hg (May 11, 3:58 pm)
Average57 °F70%29.97 "Hg
* Reported May 8 10:58 am — May 23 10:58 am, Trier. Weather by CustomWeather, © 2017

Note: Actual official high and low records may vary slightly from our data, if they occured in-between our weather recording intervals... More about our weather records

Advertising

Trier Weather History for the Previous 24 Hours

Scroll right to see more
 ConditionsComfort  
Time TempWeatherWind HumidityBarometerVisibility
10:58 am
Tue, May 23
69 °FPassing clouds.7 mph56%30.03 "HgN/A
9:58 am66 °FSunny.8 mph64%30.02 "Hg5 mi
8:58 am64 °FSunny.6 mph62%30.01 "HgN/A
7:58 am59 °FSunny.No wind76%30.01 "HgN/A
6:58 am56 °FSunny.No wind76%30.01 "HgN/A
5:58 am53 °FSunny.No wind83%29.99 "HgN/A
4:58 am55 °FPassing clouds.No wind77%29.98 "HgN/A
3:58 am55 °FPassing clouds.No wind79%29.98 "HgN/A
2:58 am59 °FPassing clouds.No wind68%29.97 "HgN/A
1:58 am59 °FOvercast.3 mph70%29.98 "HgN/A
12:58 am61 °FPassing clouds.5 mph68%29.98 "HgN/A
11:58 pm
Mon, May 22
61 °FPassing clouds.7 mph67%29.98 "HgN/A
10:58 pm62 °FOvercast.8 mph64%29.98 "HgN/A
9:58 pm64 °FPassing clouds.8 mph58%29.98 "HgN/A
8:58 pm66 °FSunny.8 mph53%29.98 "HgN/A
7:58 pm70 °FSunny.7 mph46%29.97 "HgN/A
6:58 pm72 °FSunny.7 mph43%29.97 "HgN/A
5:58 pm72 °FPassing clouds.6 mph43%29.98 "HgN/A
4:58 pm72 °FSunny.5 mph43%30.00 "HgN/A
3:58 pm72 °FSunny.8 mph41%30.01 "HgN/A
2:58 pm71 °FSunny.6 mph42%30.01 "HgN/A
1:58 pm71 °FSunny.14 mph41%30.02 "HgN/A
12:58 pm70 °FPassing clouds.12 mph44%30.04 "HgN/A
Weather by CustomWeather, © 2017

See weather overviewHow to use our weather pages